Location: Unspecified
(0.0000°N, 0.0000°E)
Time: 17:58:40
(UTC+00:00)

XW-2D - Visible Passes

Search period start: 18 January 2020 00:00
Search period end: 28 January 2020 00:00
Orbit: 508 x 527 km, 97.5° (Epoch: 18 January)

Date Brightness Start Highest point End Pass type
(mag) Time Alt. Az. Time Alt. Az. Time Alt. Az.
20 Jan ? 05:39:17 10° N 05:42:58 73° W 05:46:41 10° SSW visible
21 Jan ? 05:25:06 10° NNE 05:28:45 62° E 05:32:26 10° S visible
22 Jan ? 05:11:09 10° NE 05:14:33 35° ESE 05:17:58 10° SSE visible
23 Jan ? 04:57:30 10° NE 05:00:20 21° ESE 05:03:10 10° SSE visible
24 Jan ? 04:44:29 10° ENE 04:46:08 13° ESE 04:47:47 10° SE visible
27 Jan ? 05:33:35 10° NNE 05:37:17 88° E 05:41:02 10° S visible
